ONEWEB-0234 (48783 NORAD) Tracking and Keplerian Element Data

This shows tracking and keplerian element data for the satellite.

Feedback or suggestion? Click here.




ElementValue
Catalog48783
NameONEWEB-0234
Epoch Orbit185
Epoch Day170.58334491
Epoch Year2021
RAAN268.8745
Inclination87.4075
Eccentricity0.0008755
Argument of Perigee160.9205
Mean Anonmoly286.6071
Mean Motion15.32849448
Decay Rate-0.0094486
L11 48783U 21045S 21170.58334491 -.00944860 00000-0 -32582-1 0 9994
L22 48783 87.4075 268.8745 0008755 160.9205 286.6071 15.32849448 1853

Live tracking and technical data element details for ONEWEB-0234 (NORAD 48783). ONEWEB-0234 can be tracked NOW for your location showing map with azimuth and elevation plus other details from your city location.

Track the satellite on the map from your city or location and see movement details for azimuth, elevation, latitude, longitude, range, height, and movement on the map or in text.







IsCatalogInMostPopularTable: catalog: 48783, numindb: 8
Update: records affected: 1



GetName: 48783 ONEWEB-0234

Hit Count: updated at: Mon, 21 Jun 2021 04:45:56 GMT